Location: Newark
(59.4564°N, 26.6917°E)
Time: 20:46:58
(UTC+00:00)

SR - Pass Details

Date: 27 November 2019
Orbit: 573 x 882 km, 66.7° (Epoch: 12 December)

Event Time Altitude Azimuth Distance (km) Brightness Sun altitude
Rises 12:20:14 0° 226° (SW) 3,300 ? 4.5°
Reaches altitude 10° 12:22:35 10° 226° (SW) 2,413 ? 4.3°
Maximum altitude 12:28:14 86° 139° (SE) 867 ? 3.9°
Drops below altitude 10° 12:34:11 10° 51° (NE) 2,546 ? 3.5°
Sets 12:36:44 0° 51° (NE) 3,494 ? 3.3°
